Temp
18 18 17 18 18 17 17 17 17 16 16 16 16 16 15 15 16 16 16 15 15 15 15 15 15 15 15 15 15 16 16 16 16 16 16 16 16 15 14 14 14 14 14
19 18 17 18 18 17 16 16 16 16 16 15 15 16 16 16 16 16 15 15 16 16 15 16 15 15 14 15 15 15 15 15 15 15 15 15 15 15 15 14 14 14 13
19 17 17 18 18 17 16 16 16 16 15 15 15 16 16 16 17 16 15 15 15 15 15 16 15 15 15 15 15 15 15 15 14 14 14 14 14 14 15 15 14 14 14
19 17 17 17 17 17 17 16 16 15 16 16 16 17 17 16 16 16 15 15 15 15 15 16 15 15 15 15 15 15 15 14 14 14 14 14 14 14 14 14 14 14 14
19 18 17 17 17 17 16 16 15 15 16 17 18 18 17 15 16 16 15 15 15 15 15 16 16 16 15 15 15 15 15 14 14 14 14 14 14 14 14 14 14 14 14
18 17 16 16 17 17 16 16 16 17 16 17 18 18 17 15 15 16 15 15 15 16 16 16 16 16 16 15 15 15 14 14 14 14 14 14 14 13 14 13 13 14 14
18 16 16 16 16 16 16 17 16 17 17 17 18 17 15 16 16 16 16 16 16 16 16 16 16 16 15 15 15 14 14 14 15 15 14 15 14 14 14 14 13 14 14
18 16 16 16 16 16 16 17 16 18 18 18 17 17 15 16 16 16 16 16 16 16 16 16 16 16 15 15 15 14 14 14 14 14 14 14 14 14 14 14 14 14 14
18 18 16 16 17 16 16 17 17 18 18 18 18 17 17 16 16 16 16 16 16 17 16 16 16 16 15 15 15 14 14 14 14 14 14 14 13 14 14 14 14 14 14
17 17 17 17 16 16 16 16 16 18 18 18 18 18 18 18 17 17 16 16 16 16 16 16 16 15 15 15 15 14 14 14 14 14 14 14 13 14 14 14 14 14 14
17 17 17 17 16 16 16 16 16 17 17 17 17 17 18 18 18 18 17 17 16 16 16 16 15 15 15 15 14 14 14 14 14 14 14 13 13 13 13 14 14 15 15
17 16 16 16 16 16 16 16 16 16 16 17 16 17 17 17 17 17 17 17 17 17 17 16 15 15 15 15 15 14 14 13 14 13 13 13 13 13 13 14 14 15 15
17 16 16 16 16 17 17 16 16 16 16 16 17 17 17 17 17 17 17 17 17 17 16 16 16 16 16 15 15 15 14 14 14 14 14 13 13 13 13 13 14 14 14
17 17 17 16 16 17 17 16 16 16 16 17 17 17 17 16 17 17 17 17 17 16 16 16 16 15 15 15 15 15 15 14 14 14 14 14 13 13 13 13 13 14 14
17 17 17 16 16 16 16 16 16 16 16 16 17 17 16 16 16 16 16 16 16 15 15 15 15 15 15 15 15 14 14 14 14 14 13 13 13 13 13 13 13 13 13
17 17 17 16 16 16 16 16 16 16 16 16 16 16 16 16 16 16 16 16 15 15 15 15 15 14 14 14 14 14 14 14 14 14 13 13 13 13 12 12 12 12 13
17 17 16 16 16 16 16 16 16 16 16 16 16 16 16 15 15 15 15 15 15 15 14 14 14 14 14 14 14 14 13 13 13 13 13 13 12 12 12 12 12 12 12
17 17 16 16 16 16 16 16 16 16 16 16 16 16 15 15 15 15 15 15 15 14 14 14 14 14 14 13 13 13 13 13 13 13 13 13 13 12 12 12 11 11 11
18 17 17 16 16 16 16 16 16 15 15 15 15 16 16 15 15 15 15 16 15 14 14 14 14 13 14 13 13 13 12 12 12 12 13 13 13 13 12 12 11 11 11
18 18 17 17 16 16 16 15 16 15 15 15 15 15 15 15 15 15 15 15 15 14 14 14 14 14 13 13 13 13 13 12 12 12 12 12 13 13 12 12 11 11 11
18 18 18 17 17 17 16 15 15 15 15 15 15 15 15 15 15 15 15 15 14 14 14 14 13 13 13 13 13 13 13 13 12 12 12 12 13 12 12 12 11 11 10
18 18 18 18 17 17 17 16 16 16 16 16 16 16 15 15 15 14 14 14 14 14 14 14 14 13 13 13 12 12 12 12 13 13 13 13 13 12 12 12 11 11 10
17 17 17 16 16 16 16 16 16 16 16 16 16 16 16 16 15 15 15 14 14 14 14 13 13 13 13 13 12 11 11 12 12 12 13 13 13 13 13 12 11 10 9
16 16 16 16 16 16 16 16 15 15 15 15 15 15 15 15 15 15 15 14 14 14 13 13 13 13 12 12 12 12 11 11 11 10 11 12 12 13 12 12 11 10 9
15 15 15 15 15 15 14 14 14 14 14 14 14 14 14 14 14 14 14 14 14 13 13 13 12 12 12 12 11 11 11 11 10 10 9 10 10 10 10 10 10 10 10
14 13 13 13 13 13 12 12 12 12 12 13 13 13 13 13 13 13 13 13 13 13 12 12 12 11 11 11 11 10 10 10 10 10 10 9 9 9 9 9 10 9 9
Height
1531 1534 1537 1540 1543 1545 1546 1548 1549 1550 1551 1551 1551 1552 1552 1552 1552 1552 1553 1554 1555 1555 1555 1555 1555 1555 1556 1557 1557 1557 1558 1557 1557 1556 1554 1554 1553 1552 1553 1553 1553 1553 1553
1529 1534 1538 1541 1543 1545 1547 1549 1550 1551 1551 1551 1551 1552 1552 1552 1553 1554 1555 1556 1557 1557 1557 1556 1556 1556 1557 1558 1559 1559 1559 1559 1558 1557 1557 1556 1556 1555 1555 1555 1555 1555 1555
1531 1535 1538 1541 1544 1546 1548 1550 1551 1552 1552 1551 1552 1553 1553 1553 1554 1556 1557 1558 1559 1559 1558 1557 1556 1557 1558 1559 1560 1560 1560 1560 1560 1560 1559 1559 1558 1558 1558 1557 1557 1557 1557
1533 1535 1539 1542 1545 1547 1549 1550 1551 1552 1552 1553 1553 1553 1554 1555 1557 1558 1559 1560 1560 1560 1560 1559 1558 1558 1559 1560 1561 1561 1562 1562 1562 1562 1562 1560 1560 1560 1560 1560 1559 1558 1557
1534 1536 1540 1543 1545 1548 1550 1551 1551 1552 1553 1554 1554 1555 1556 1557 1558 1559 1560 1561 1561 1562 1561 1561 1560 1560 1561 1561 1562 1563 1563 1563 1563 1563 1563 1563 1562 1562 1562 1562 1561 1560 1560
1534 1538 1541 1544 1546 1549 1550 1551 1553 1554 1554 1554 1554 1556 1557 1559 1559 1561 1561 1562 1563 1563 1563 1563 1563 1563 1563 1563 1564 1564 1564 1564 1564 1564 1565 1564 1564 1564 1564 1563 1563 1562 1561
1535 1539 1542 1544 1547 1549 1550 1552 1554 1555 1555 1555 1555 1557 1559 1560 1561 1561 1563 1563 1564 1564 1565 1565 1566 1566 1566 1566 1566 1565 1566 1566 1566 1565 1565 1565 1565 1565 1564 1564 1563 1563 1563
1536 1539 1543 1545 1547 1549 1551 1553 1555 1555 1556 1557 1557 1557 1559 1560 1562 1563 1563 1564 1565 1566 1566 1567 1568 1568 1568 1568 1568 1568 1568 1568 1568 1567 1567 1566 1566 1565 1565 1564 1564 1563 1562
1538 1541 1544 1546 1548 1549 1551 1553 1555 1556 1557 1558 1559 1560 1560 1560 1561 1562 1563 1564 1565 1566 1567 1568 1569 1569 1569 1569 1569 1569 1569 1569 1569 1568 1567 1567 1566 1565 1565 1564 1563 1562 1561
1539 1542 1544 1546 1548 1550 1552 1553 1555 1556 1557 1558 1560 1561 1562 1562 1563 1563 1563 1564 1565 1566 1567 1568 1569 1570 1570 1570 1570 1569 1570 1570 1569 1569 1568 1568 1567 1566 1565 1564 1563 1562 1561
1539 1542 1544 1546 1547 1550 1551 1553 1554 1556 1557 1558 1559 1560 1561 1562 1563 1564 1566 1566 1566 1567 1567 1568 1569 1570 1570 1570 1570 1569 1570 1570 1570 1570 1569 1569 1568 1567 1566 1564 1563 1562 1561
1539 1541 1544 1546 1547 1549 1550 1552 1554 1556 1557 1558 1559 1561 1561 1562 1563 1563 1564 1565 1566 1567 1568 1568 1569 1569 1570 1570 1570 1570 1570 1570 1570 1570 1570 1569 1569 1567 1566 1565 1564 1562 1561
1540 1541 1543 1545 1547 1549 1550 1552 1554 1555 1556 1558 1559 1560 1560 1561 1562 1563 1564 1564 1565 1566 1567 1568 1569 1570 1570 1570 1570 1570 1570 1570 1570 1570 1569 1568 1568 1567 1567 1565 1564 1563 1561
1539 1542 1543 1545 1546 1549 1550 1552 1553 1554 1555 1556 1558 1559 1559 1560 1561 1562 1563 1564 1565 1566 1566 1567 1567 1568 1569 1569 1569 1569 1569 1569 1568 1568 1567 1567 1567 1566 1565 1564 1564 1562 1562
1539 1541 1542 1544 1546 1548 1549 1550 1552 1553 1554 1555 1556 1557 1558 1559 1560 1561 1562 1563 1564 1564 1565 1565 1566 1566 1567 1567 1567 1567 1567 1566 1566 1566 1566 1566 1565 1565 1564 1564 1563 1562 1561
1537 1539 1542 1543 1545 1547 1548 1549 1551 1552 1554 1554 1555 1556 1557 1558 1559 1559 1560 1561 1562 1563 1564 1564 1565 1565 1564 1565 1565 1565 1565 1565 1564 1564 1563 1564 1564 1564 1564 1563 1561 1560 1559
1535 1538 1539 1542 1543 1544 1546 1548 1549 1551 1552 1553 1554 1555 1555 1556 1557 1558 1558 1559 1560 1561 1561 1561 1562 1562 1562 1562 1562 1562 1562 1563 1562 1561 1561 1561 1562 1562 1562 1562 1561 1559 1558
1536 1537 1538 1539 1541 1542 1544 1546 1547 1548 1549 1551 1552 1553 1553 1554 1555 1555 1556 1556 1558 1558 1558 1558 1559 1559 1559 1559 1559 1558 1558 1558 1558 1557 1558 1557 1558 1558 1559 1559 1559 1558 1557
1534 1535 1537 1537 1538 1539 1541 1543 1544 1546 1546 1547 1549 1550 1551 1551 1552 1552 1552 1553 1554 1554 1554 1555 1554 1555 1555 1554 1554 1554 1553 1553 1554 1554 1553 1553 1553 1553 1553 1554 1554 1554 1554
1529 1531 1533 1534 1536 1537 1538 1540 1541 1543 1543 1544 1545 1546 1547 1548 1549 1549 1549 1550 1550 1550 1551 1550 1550 1551 1550 1550 1549 1548 1547 1547 1547 1547 1548 1548 1547 1547 1548 1548 1549 1550 1550
1525 1527 1529 1531 1533 1534 1535 1536 1537 1538 1539 1540 1541 1542 1543 1544 1544 1544 1545 1545 1545 1546 1547 1547 1546 1546 1545 1545 1544 1542 1541 1541 1541 1541 1542 1542 1541 1541 1542 1543 1544 1545 1547
1522 1524 1526 1527 1529 1530 1531 1532 1533 1534 1535 1536 1537 1537 1538 1539 1539 1539 1540 1541 1541 1541 1541 1541 1541 1541 1541 1541 1539 1538 1534 1534 1534 1535 1536 1535 1535 1535 1536 1537 1537 1538 1540
1520 1521 1523 1524 1525 1526 1527 1527 1528 1529 1529 1531 1532 1533 1533 1533 1534 1534 1534 1534 1535 1535 1534 1535 1535 1535 1534 1534 1534 1535 1531 1527 1527 1528 1530 1530 1529 1529 1530 1530 1531 1533 1534
1518 1519 1520 1520 1521 1523 1523 1523 1523 1524 1525 1526 1526 1527 1528 1528 1528 1527 1527 1527 1528 1528 1527 1528 1529 1528 1528 1527 1527 1527 1526 1524 1523 1519 1523 1523 1524 1524 1524 1525 1525 1526 1527
1514 1516 1517 1518 1518 1518 1518 1518 1519 1519 1519 1519 1520 1520 1520 1521 1521 1520 1520 1520 1520 1521 1521 1521 1522 1522 1522 1522 1520 1520 1520 1519 1518 1518 1513 1515 1517 1519 1518 1518 1519 1518 1519
1510 1512 1513 1513 1514 1515 1515 1515 1515 1515 1515 1515 1515 1515 1515 1515 1514 1514 1513 1513 1514 1514 1515 1516 1516 1516 1516 1516 1515 1515 1515 1515 1514 1513 1511 1509 1508 1510 1511 1511 1509 1510 1510
Wind_Speed
21 21 21 20 18 17 16 14 12 10 7 6 5 4 2 3 4 8 12 12 13 9 6 6 6 7 9 8 6 5 5 5 6 7 10 11 11 10 11 15 12 10 8
25 22 21 20 17 16 14 12 12 10 8 5 3 6 4 6 9 14 14 15 12 11 9 6 6 8 9 8 6 5 4 4 6 8 11 12 12 12 9 9 8 7 5
23 24 22 20 18 16 15 13 13 11 9 6 6 7 7 10 13 17 16 11 9 8 8 8 7 10 11 9 7 6 4 5 8 10 12 11 11 10 11 10 8 5 4
22 24 22 20 19 17 16 14 13 12 8 6 8 9 12 11 14 15 13 10 8 7 8 9 11 14 12 10 8 6 6 8 9 9 9 10 9 9 9 10 10 7 3
22 23 22 20 20 17 16 15 14 10 8 8 9 10 12 11 14 13 12 10 6 5 8 10 11 12 11 10 8 7 6 7 7 7 9 9 9 9 7 7 9 12 11
21 23 22 21 19 18 16 13 11 9 7 10 11 12 11 12 13 13 11 8 6 6 8 9 10 11 10 9 7 6 6 8 9 9 7 5 6 8 7 6 3 7 9
24 21 22 20 19 18 15 11 9 5 6 10 13 14 12 12 11 11 8 8 7 7 7 8 9 9 9 8 6 4 4 5 5 6 4 3 3 4 4 3 2 2 3
23 21 21 20 18 18 16 13 10 7 7 7 11 16 13 12 11 9 8 7 7 6 7 7 7 7 7 7 5 4 3 2 3 4 4 3 1 2 1 2 5 7 8
19 20 18 18 18 18 16 14 11 9 8 7 7 7 9 13 14 11 10 8 7 6 7 7 6 6 6 6 5 5 3 2 1 3 4 5 3 4 3 4 6 7 8
16 15 16 18 17 17 16 13 12 11 9 7 8 7 6 5 6 9 11 10 9 8 8 8 7 6 6 6 7 7 5 3 3 4 4 6 5 5 8 9 8 8 7
15 12 13 17 17 18 17 14 13 11 7 7 8 8 8 7 7 7 6 6 6 6 7 6 6 6 7 7 8 10 7 6 6 5 5 7 7 10 11 11 10 10 9
17 13 12 16 19 17 17 16 14 12 9 8 6 6 8 8 9 9 8 7 7 7 7 7 7 7 7 8 9 10 10 9 8 8 8 8 9 11 12 12 11 11 10
14 13 11 13 18 15 13 16 15 13 12 11 10 8 9 10 10 10 10 9 8 8 8 9 9 9 8 9 10 11 12 12 10 10 11 10 11 12 13 13 12 12 10
16 13 11 12 13 12 13 14 14 15 14 14 11 11 11 10 11 11 10 10 9 8 9 10 11 12 12 12 13 13 14 15 15 13 13 13 13 14 14 14 14 13 12
17 15 14 13 13 12 11 11 12 12 12 12 12 12 12 12 11 11 11 12 11 10 8 10 13 15 16 16 16 17 16 17 18 18 17 15 16 16 16 16 16 15 13
18 18 17 17 15 15 13 11 10 11 10 11 10 11 12 11 11 11 12 13 13 11 10 10 11 13 15 16 17 17 17 19 20 21 20 19 18 19 17 17 17 17 15
20 19 19 16 16 18 16 14 13 11 12 13 12 11 12 13 13 14 14 14 14 13 13 14 15 16 18 18 19 19 19 19 20 21 23 23 21 21 20 19 20 19 18
15 19 21 23 20 18 18 16 16 15 16 16 16 15 14 14 14 16 17 17 16 17 17 18 19 20 21 22 23 22 22 22 22 23 25 25 25 24 23 22 21 21 21
14 15 17 17 19 20 20 20 19 19 20 20 20 20 19 18 18 18 19 20 19 19 21 22 23 24 25 26 27 27 26 26 25 25 27 26 27 27 27 25 24 23 23
18 18 18 20 20 20 21 24 24 25 25 24 24 24 23 22 23 23 25 25 23 23 24 25 26 27 28 29 31 32 31 30 30 31 31 30 29 30 31 29 28 27 25
20 19 19 19 21 23 25 25 25 25 24 24 25 26 29 28 28 29 29 30 30 31 30 27 28 29 30 31 34 36 36 36 35 36 36 36 35 34 33 33 32 30 28
23 21 20 21 22 22 23 24 25 25 25 26 24 24 25 28 28 31 32 32 31 31 30 29 30 33 34 35 36 37 37 35 36 35 35 36 36 37 36 35 35 34 32
18 19 19 19 20 21 22 23 25 26 29 29 28 28 27 28 30 32 32 32 30 30 30 30 31 30 33 34 33 34 20 21 22 23 23 24 27 30 32 35 36 36 36
17 17 17 18 19 21 23 24 25 25 26 26 27 28 29 31 32 32 31 30 31 31 29 28 26 25 26 30 31 33 36 38 32 27 26 24 25 27 29 31 34 35 37
16 17 17 18 19 20 21 22 23 25 26 27 27 28 30 31 33 34 34 33 31 30 29 26 24 24 24 25 26 26 29 31 32 35 35 31 31 30 35 33 30 33 33
15 14 14 14 14 14 14 15 15 15 15 16 17 17 18 18 19 20 24 27 28 27 25 24 23 23 22 23 21 19 20 23 24 28 32 36 37 37 33 37 35 37 35
Wind_Direction
163 162 163 163 162 159 157 158 158 159 159 172 184 188 161 97 87 108 120 112 114 103 96 104 114 133 134 135 125 100 83 64 47 54 68 66 62 72 95 96 99 81 77
153 160 165 163 163 156 150 146 143 136 135 141 156 154 125 99 107 123 123 120 108 88 75 85 122 142 146 138 124 112 96 78 74 80 78 70 65 65 85 103 99 108 113
158 159 163 161 160 152 154 154 145 150 156 168 171 117 112 111 117 131 124 126 114 87 62 72 104 141 143 139 136 131 114 90 89 85 78 72 65 61 68 74 69 61 61
164 161 162 161 158 161 161 154 154 159 153 149 132 118 123 119 129 135 132 141 119 87 61 80 102 128 141 144 142 128 109 99 98 83 78 65 66 65 68 71 52 40 72
170 166 162 165 164 164 164 165 172 164 163 132 121 126 131 131 139 140 139 159 140 93 74 91 104 118 130 136 131 116 101 90 94 82 77 75 76 74 73 95 81 67 89
173 169 164 166 167 169 170 178 174 174 154 140 136 142 135 130 143 152 158 157 146 113 91 104 109 115 125 132 127 117 99 92 82 77 79 106 105 99 98 113 98 100 109
170 170 167 174 173 175 177 183 185 191 169 156 150 158 149 145 141 145 144 137 136 118 107 115 116 118 128 137 129 126 104 105 88 73 59 80 167 193 201 217 265 258 236
176 170 171 176 180 182 186 194 205 206 179 177 167 167 167 160 157 151 149 140 136 125 124 130 128 128 135 150 154 166 149 119 59 37 45 54 129 205 189 262 293 294 279
181 184 185 186 187 188 194 198 204 190 179 172 167 175 183 178 174 172 166 162 158 153 149 148 148 151 160 168 180 205 216 211 353 2 4 3 333 357 3 341 326 317 314
173 181 189 187 189 195 196 202 208 193 177 167 168 164 173 183 202 194 185 184 182 178 172 169 171 175 180 189 197 225 240 251 296 314 329 336 312 323 338 339 339 335 331
170 177 186 193 197 199 204 206 210 207 184 182 185 179 181 181 192 195 201 206 205 197 192 193 195 197 199 207 213 231 239 261 285 295 309 312 313 310 321 326 338 338 333
181 184 193 203 208 212 205 208 214 217 218 217 221 214 206 202 198 200 204 213 216 222 226 224 222 220 222 227 231 238 244 256 274 286 294 300 306 310 315 317 327 334 331
189 189 191 201 208 221 211 210 216 225 234 238 239 234 223 222 219 220 216 219 222 232 241 250 256 260 256 251 250 253 258 269 273 279 287 293 299 304 311 313 317 322 320
200 199 196 191 199 207 214 219 226 235 242 245 246 243 240 239 238 234 236 238 237 249 259 262 262 262 260 258 256 254 262 268 273 274 278 284 290 296 304 309 308 313 311
209 211 211 206 199 200 205 214 223 234 248 251 249 245 245 248 246 246 243 246 249 257 269 273 270 270 270 267 265 262 260 267 275 278 280 279 283 286 296 302 307 307 305
221 222 219 221 220 218 217 219 227 241 252 245 243 242 245 250 248 249 247 253 258 267 276 278 278 277 276 271 269 266 268 271 277 279 282 281 280 283 288 294 298 300 298
234 236 236 231 235 235 233 232 236 243 251 248 246 242 247 255 258 260 261 258 262 269 276 279 278 278 277 278 279 277 275 278 281 282 281 281 279 278 283 286 291 295 297
210 224 236 243 244 249 249 253 256 257 260 262 259 251 250 255 261 268 271 272 275 276 277 278 282 282 282 280 282 283 283 280 285 288 284 281 280 279 279 281 285 288 289
209 214 219 229 242 251 252 254 258 261 264 265 265 264 264 259 262 266 275 280 282 282 280 281 283 281 284 285 284 285 285 283 284 286 284 283 282 280 278 277 277 278 280
225 223 220 225 232 235 245 250 251 255 259 262 264 264 264 264 265 267 272 274 275 276 278 280 280 282 283 286 284 283 283 282 279 279 280 280 281 280 278 275 272 273 275
230 231 233 229 229 230 234 238 242 244 249 254 257 260 263 264 267 267 270 273 273 274 275 277 281 281 282 282 282 283 281 280 276 277 278 278 280 280 278 276 273 270 270
229 233 238 241 234 233 233 235 239 245 248 250 252 255 257 258 261 262 266 268 269 271 273 275 273 271 273 278 277 277 279 282 279 279 278 280 282 280 279 275 272 270 266
224 234 236 235 235 237 241 244 248 251 252 252 254 257 259 260 261 261 261 260 263 265 267 273 273 272 275 277 280 276 273 279 284 285 284 284 285 283 279 275 271 271 268
220 227 236 244 247 248 249 249 248 249 251 254 255 257 259 263 266 268 268 266 264 265 264 269 276 276 275 277 279 277 277 278 276 285 287 280 282 283 285 283 281 274 270
225 238 245 250 254 258 260 261 259 257 260 263 265 266 266 265 264 265 266 267 266 262 264 265 269 272 274 276 282 283 281 277 274 277 284 286 283 283 285 285 287 277 273
228 234 238 239 243 247 251 255 258 260 262 264 268 271 273 273 272 272 267 266 263 262 262 260 262 268 271 273 279 282 282 279 285 285 284 290 290 291 288 287 287 277 269